[[{"header":{"parameterUnit":"m.s-1","parameterCategory":1,"la1":30.2991,"la2":30.254,"lo1":-89.0895,"lo2":-89.0444,"dy":0.0017,"dx":0.0017,"nx":28,"ny":28,"refTime":"2023-09-23T03:00:00:Z","depth":0,"parameterNumber":2,"parameterNumberName":"U-component_of_WINDS"},"data":[0,0,0,0,0,0,0,0,0,0,0,0,0,0,0,0,0,0,0,0,0,0,0,0,0,0,0,0,0,0,0,0,0,0,0,0,0,0,0,0,0,0,0,0,0,0,0,0,0,0,0,0,0,0,0,0,0,0,-0.4352,-0.4352,0,-0.4306,-0.4306,-0.4305,-0.4284,-0.4284,-0.4284,-0.4284,-0.4231,-0.423,-0.4228,0,0,0,0,0,0,0,0,0,0,0,0,0,-0.4418,-0.4417,-0.4352,-0.4352,-0.4351,-0.4306,-0.4306,-0.4305,-0.4284,-0.4284,-0.4284,-0.4284,-0.4231,-0.423,-0.4228,0,0,0,0,0,0,0,0,0,0,0,0,0,-0.4382,-0.4416,-0.4352,-0.4335,-0.4333,-0.4307,-0.4306,-0.4305,-0.4284,-0.4284,-0.4284,-0.4284,-0.4232,-0.423,-0.4228,-0.4213,0,0,-0.4221,-0.422,0,0,0,0,0,0,0,0,-0.4384,-0.438,-0.4338,-0.4336,-0.4334,-0.4301,-0.4309,-0.4274,-0.4284,-0.4302,-0.4284,-0.4284,-0.4254,-0.425,-0.4241,-0.421,-0.4208,-0.4221,-0.422,-0.4219,-0.4218,0,0,0,0,0,0,0,-0.4387,-0.4382,-0.4334,-0.4338,-0.4335,-0.4329,-0.4324,-0.4303,-0.4278,-0.4301,-0.4299,-0.4294,-0.4253,-0.4243,-0.4239,-0.4207,-0.4221,-0.4219,-0.4218,-0.4217,-0.4164,-0.4164,0,0,0,0,0,0,-0.4393,-0.4384,-0.4335,-0.4333,-0.436,-0.4327,-0.4322,-0.4311,-0.4278,-0.4273,-0.4294,-0.4293,-0.4247,-0.4242,-0.4238,-0.4219,-0.4219,-0.4217,-0.4215,-0.4164,-0.4164,-0.4164,0,0,0,0,0,0,-0.4394,-0.4389,-0.4337,-0.4358,-0.4351,-0.4326,-0.4315,-0.431,-0.4301,-0.4273,-0.4268,-0.4289,-0.4247,-0.4241,-0.422,-0.4217,-0.4216,-0.4214,-0.4164,-0.4164,-0.4164,-0.4181,0,0,0,0,0,0,-0.4396,-0.4389,-0.4384,-0.4358,-0.435,-0.4322,-0.4314,-0.431,-0.4298,-0.4296,-0.4267,-0.4263,-0.4246,-0.4223,-0.4218,-0.4214,-0.4212,-0.4164,-0.4164,-0.4164,-0.418,-0.4181,-0.4182,0,0,0,0,0,-0.4398,-0.4389,-0.4384,-0.4378,-0.4343,-0.4321,-0.4317,-0.43,-0.4298,-0.4292,-0.4275,-0.4263,-0.4218,-0.4222,-0.4215,-0.421,-0.4165,-0.4164,-0.4164,-0.418,-0.4181,-0.4182,0,0,0,0,0,0,-0.4412,-0.4385,-0.4379,-0.4361,-0.4344,-0.4318,-0.431,-0.4301,-0.4282,-0.4282,-0.426,-0.4253,-0.4235,-0.422,-0.4224,-0.4195,-0.419,-0.4189,-0.4205,-0.4206,-0.4206,-0.421,-0.421,0,0,0,0,0,-0.4414,-0.44,-0.4376,-0.4362,-0.4355,-0.4334,-0.4324,-0.4313,-0.4293,-0.4285,-0.4266,-0.4247,-0.4228,-0.4216,-0.4198,-0.4179,-0.4172,-0.4173,-0.4173,-0.4174,-0.4173,-0.4163,-0.4163,-0.4163,-0.4163,-0.4163,0,0,-0.4415,-0.4399,-0.4391,-0.4365,-0.435,-0.4336,-0.4328,-0.4312,-0.4301,-0.4282,-0.4262,-0.4248,-0.4225,-0.4206,-0.4196,-0.4193,-0.4172,-0.4174,-0.4175,-0.4173,-0.4163,-0.4163,-0.4163,-0.4163,-0.4163,-0.4163,0,0,-0.4411,-0.4398,-0.4385,-0.4372,-0.4351,-0.4338,-0.4335,-0.4311,-0.4302,-0.4282,-0.4269,-0.4254,-0.4223,-0.4207,-0.4195,-0.4189,-0.4178,-0.4183,-0.4186,-0.4177,-0.4177,-0.4177,-0.4175,-0.4174,-0.4182,-0.4182,-0.4182,0,-0.4415,-0.4394,-0.4379,-0.4366,-0.4355,-0.4341,-0.4328,-0.4315,-0.4288,-0.428,-0.4278,-0.424,-0.4223,-0.4201,-0.42,-0.419,-0.4186,-0.4185,-0.4179,-0.4178,-0.4178,-0.4176,-0.4175,-0.4183,-0.4183,-0.4183,-0.4182,0,-0.4401,-0.4386,-0.4379,-0.4357,-0.4345,-0.4331,-0.4314,-0.4304,-0.4294,-0.4281,-0.4262,-0.4242,-0.422,-0.4214,-0.4203,-0.419,-0.4189,-0.4183,-0.4178,-0.4179,-0.4176,-0.4175,-0.4184,-0.4184,-0.4183,-0.4183,0,0,-0.4401,-0.4374,-0.4371,-0.4362,-0.4339,-0.4327,-0.4313,-0.4294,-0.4286,-0.4269,-0.4256,-0.4232,-0.4227,-0.4213,-0.4201,-0.4193,-0.419,-0.4188,-0.4187,-0.4189,-0.4175,-0.418,-0.4179,-0.4184,-0.4184,-0.4183,-0.4177,0,-0.4394,-0.437,-0.4358,-0.4339,-0.4326,-0.4314,-0.4302,-0.4286,-0.4275,-0.4261,-0.4247,-0.423,-0.4225,-0.4217,-0.4208,-0.4192,-0.4187,-0.4193,-0.4171,-0.417,-0.4176,-0.4177,-0.4181,-0.4176,-0.4176,-0.4176,-0.4176,0,-0.4381,-0.4367,-0.4348,-0.4329,-0.4323,-0.4313,-0.4295,-0.4282,-0.4265,-0.4257,-0.4244,-0.4233,-0.4217,-0.4215,-0.4193,-0.4197,-0.4188,-0.4179,-0.4179,-0.4175,-0.4172,-0.4173,-0.4174,-0.4173,-0.4174,-0.4174,-0.4174,0,-0.4384,-0.436,-0.4346,-0.4338,-0.4315,-0.4309,-0.4299,-0.4282,-0.4272,-0.4256,-0.4249,-0.4231,-0.4221,-0.4207,-0.4191,-0.4191,-0.4171,-0.4167,-0.4163,-0.4164,-0.4158,-0.4159,-0.4157,-0.4154,-0.4154,-0.4154,-0.4154,0,-0.4376,-0.4365,-0.4347,-0.4338,-0.4325,-0.4311,-0.4299,-0.4287,-0.4273,-0.4261,-0.4249,-0.4238,-0.4218,-0.4205,-0.4192,-0.4177,-0.4172,-0.4164,-0.4161,-0.4165,-0.4166,-0.4158,-0.4157,-0.4154,-0.4154,-0.4154,-0.4154,0,-0.4376,-0.4364,-0.4348,-0.4329,-0.4324,-0.4316,-0.4299,-0.429,-0.4279,-0.4264,-0.426,-0.4241,-0.4225,-0.4209,-0.4186,-0.4177,-0.4162,-0.4158,-0.4168,-0.4166,-0.4163,-0.4164,-0.4156,-0.4154,-0.4152,-0.4152,-0.4152,0,-0.4372,-0.4363,-0.4345,-0.4337,-0.4328,-0.4316,-0.4307,-0.4293,-0.4283,-0.4265,-0.4257,-0.4241,-0.4227,-0.4201,-0.4185,-0.4168,-0.4163,-0.4161,-0.416,-0.4165,-0.4162,-0.4163,-0.4162,-0.4161,-0.4161,-0.4161,-0.4161,0,-0.4365,-0.436,-0.4348,-0.4335,-0.4325,-0.4312,-0.43,-0.4294,-0.4278,-0.4268,-0.4252,-0.4242,-0.422,-0.4204,-0.4186,-0.4174,-0.4165,-0.4163,-0.4161,-0.4164,-0.4171,-0.4167,-0.4169,-0.4162,-0.4162,-0.4162,-0.4162,-0.4162,-0.4362,-0.4355,-0.4342,-0.4329,-0.4319,-0.4308,-0.4299,-0.4288,-0.4276,-0.4258,-0.4251,-0.4236,-0.422,-0.4195,-0.4184,-0.4171,-0.4168,-0.4165,-0.4164,-0.4164,-0.4165,-0.4174,-0.4167,-0.4167,-0.4167,-0.4167,-0.4167,0,-0.4355,-0.4347,-0.4336,-0.432,-0.431,-0.4306,-0.4292,-0.4284,-0.4271,-0.4258,-0.4246,-0.4228,-0.4213,-0.4197,-0.4181,-0.4173,-0.4169,-0.4169,-0.4169,-0.4167,-0.4168,-0.4171,-0.4174,-0.4174,-0.4174,-0.4174,-0.4174,-0.4174,-0.4351,-0.4338,-0.4332,-0.4314,-0.4306,-0.4292,-0.4285,-0.4275,-0.4265,-0.4247,-0.4235,-0.4226,-0.4211,-0.4194,-0.418,-0.4176,-0.417,-0.4172,-0.4166,-0.4167,-0.4167,-0.4166,-0.4169,-0.4171,-0.4171,-0.4166,-0.4166,-0.4166]},{"header":{"parameterUnit":"m.s-1","parameterCategory":1,"la1":30.2991,"la2":30.254,"lo1":-89.0895,"lo2":-89.0444,"dy":0.0017,"dx":0.0017,"nx":28,"ny":28,"refTime":"2023-09-23T03:00:00:Z","depth":0,"parameterNumber":3,"parameterNumberName":"V-component_of_WINDS"},"data":[0,0,0,0,0,0,0,0,0,0,0,0,0,0,0,0,0,0,0,0,0,0,0,0,0,0,0,0,0,0,0,0,0,0,0,0,0,0,0,0,0,0,0,0,0,0,0,0,0,0,0,0,0,0,0,0,0,0,2.5792,2.5791,0,2.5657,2.5655,2.5654,2.56,2.5601,2.5601,2.5602,2.5454,2.545,2.5446,0,0,0,0,0,0,0,0,0,0,0,0,0,2.5997,2.5994,2.5793,2.5791,2.5789,2.5657,2.5655,2.5653,2.56,2.5601,2.5601,2.5602,2.5456,2.545,2.5445,0,0,0,0,0,0,0,0,0,0,0,0,0,2.589,2.5993,2.5793,2.5747,2.5742,2.5657,2.5655,2.5653,2.56,2.5601,2.5601,2.5602,2.5457,2.5451,2.5445,2.5393,0,0,2.5425,2.5422,0,0,0,0,0,0,0,0,2.5896,2.5882,2.5756,2.575,2.5744,2.5646,2.5673,2.5565,2.56,2.5654,2.5602,2.5602,2.5517,2.5506,2.5479,2.5386,2.538,2.5424,2.5421,2.5418,2.5416,0,0,0,0,0,0,0,2.5903,2.5888,2.5739,2.5754,2.5747,2.573,2.5716,2.5653,2.5583,2.5649,2.5645,2.563,2.5514,2.5485,2.5475,2.5378,2.5425,2.5419,2.5415,2.5412,2.5234,2.5233,0,0,0,0,0,0,2.592,2.5894,2.5743,2.5735,2.5823,2.5726,2.571,2.5677,2.5584,2.5571,2.563,2.5628,2.5496,2.5482,2.5469,2.5402,2.5418,2.5412,2.5408,2.5235,2.5234,2.5233,0,0,0,0,0,0,2.5924,2.5907,2.5748,2.5813,2.5792,2.5722,2.5685,2.5674,2.5645,2.557,2.5556,2.5613,2.5496,2.5478,2.5413,2.5396,2.5409,2.5403,2.5236,2.5235,2.5234,2.5267,0,0,0,0,0,0,2.593,2.5909,2.5891,2.5813,2.5789,2.5697,2.5685,2.5671,2.5635,2.5632,2.5551,2.5538,2.5495,2.5423,2.5406,2.5387,2.5398,2.5237,2.5235,2.5234,2.5267,2.5267,2.5267,0,0,0,0,0,2.5938,2.5904,2.589,2.5872,2.5765,2.5696,2.5681,2.5635,2.5634,2.5614,2.5565,2.554,2.5401,2.5416,2.5398,2.5376,2.5238,2.5236,2.5234,2.5267,2.5267,2.5267,0,0,0,0,0,0,2.5978,2.5893,2.5876,2.5817,2.5765,2.5687,2.566,2.5637,2.5581,2.558,2.5522,2.5504,2.5443,2.5403,2.5422,2.5321,2.5317,2.5312,2.5349,2.5348,2.5348,2.5358,2.5393,0,0,0,0,0,2.5981,2.5935,2.5861,2.5816,2.5791,2.573,2.5698,2.5667,2.5609,2.5586,2.5532,2.5474,2.5417,2.5381,2.5324,2.5262,2.5241,2.5237,2.5237,2.5238,2.5233,2.5194,2.5191,2.5227,2.5227,2.5227,0,0,2.5984,2.5932,2.5906,2.5823,2.5778,2.5729,2.5712,2.566,2.5622,2.5577,2.5512,2.5471,2.5402,2.5338,2.5306,2.5302,2.5219,2.5235,2.5236,2.523,2.5192,2.5188,2.5186,2.5225,2.5225,2.5226,0,0,2.5965,2.5923,2.5879,2.5836,2.5769,2.5729,2.5719,2.5645,2.5617,2.5551,2.5516,2.5468,2.5372,2.5324,2.5287,2.525,2.5224,2.5233,2.5232,2.5195,2.5192,2.5189,2.5174,2.5169,2.5228,2.5229,2.5229,0,2.5977,2.5904,2.5859,2.581,2.5773,2.5733,2.5687,2.5646,2.5563,2.5537,2.5535,2.5413,2.5364,2.5286,2.5277,2.525,2.5233,2.5241,2.5197,2.5193,2.519,2.5174,2.5169,2.523,2.523,2.523,2.5229,0,2.5921,2.5871,2.5843,2.5768,2.5728,2.568,2.5625,2.559,2.5562,2.5521,2.5454,2.5394,2.5324,2.5303,2.5275,2.5221,2.5221,2.5209,2.5204,2.5189,2.5173,2.5167,2.5232,2.5231,2.5231,2.5231,0,0,2.5923,2.5824,2.5814,2.5778,2.5702,2.5661,2.561,2.5544,2.5514,2.5458,2.5412,2.5332,2.532,2.5278,2.5244,2.5212,2.5184,2.5203,2.52,2.52,2.5118,2.5126,2.512,2.5167,2.5166,2.5165,2.5123,0,2.5893,2.5804,2.5761,2.5689,2.564,2.5602,2.5557,2.5504,2.5465,2.5415,2.537,2.5313,2.5303,2.5277,2.5244,2.5195,2.5166,2.5197,2.5121,2.5118,2.5137,2.5112,2.5121,2.5084,2.5116,2.5115,2.5115,0,2.5845,2.5792,2.5716,2.5645,2.5623,2.5584,2.5519,2.5474,2.5411,2.5385,2.5338,2.5305,2.5248,2.5249,2.5167,2.5189,2.5155,2.5125,2.5123,2.5112,2.5114,2.5098,2.5071,2.5065,2.5105,2.5106,2.5106,0,2.5852,2.5761,2.5704,2.5674,2.559,2.5563,2.5527,2.5466,2.5428,2.5371,2.5345,2.5281,2.5245,2.5195,2.5145,2.5151,2.5066,2.5064,2.504,2.5041,2.5022,2.5023,2.4987,2.5004,2.5004,2.5005,2.5005,0,2.5821,2.5775,2.5705,2.567,2.5617,2.5567,2.5515,2.5475,2.542,2.5374,2.5336,2.5293,2.523,2.5178,2.5138,2.5074,2.5059,2.5033,2.5022,2.5035,2.5038,2.501,2.5011,2.5003,2.5003,2.5004,2.5004,0,2.5819,2.5771,2.5705,2.5631,2.5611,2.5575,2.551,2.5472,2.5432,2.5373,2.5356,2.5291,2.5227,2.5173,2.5089,2.5062,2.4995,2.4984,2.5017,2.5011,2.4989,2.4991,2.4932,2.492,2.4948,2.4948,2.4948,0,2.5802,2.5766,2.5689,2.5656,2.5621,2.5569,2.5531,2.548,2.5441,2.5368,2.5338,2.5273,2.5217,2.5117,2.506,2.4995,2.498,2.4964,2.4969,2.4983,2.4976,2.4978,2.4973,2.4963,2.4963,2.4963,2.4962,0,2.5775,2.5753,2.5702,2.5641,2.5597,2.5546,2.5494,2.5469,2.5408,2.5366,2.5302,2.5259,2.5174,2.5108,2.5037,2.4995,2.4967,2.4962,2.4952,2.4963,2.4983,2.497,2.5014,2.4962,2.4962,2.4962,2.4962,2.4962,2.5763,2.5729,2.5669,2.5612,2.5568,2.552,2.5481,2.5436,2.5382,2.5311,2.5283,2.5217,2.5153,2.5055,2.5014,2.4959,2.4955,2.4942,2.4938,2.4935,2.4936,2.4994,2.4946,2.4946,2.4946,2.4946,2.4946,0,2.5733,2.5693,2.5641,2.557,2.5525,2.5506,2.5447,2.5409,2.5352,2.5297,2.5244,2.5169,2.5104,2.5043,2.4975,2.4943,2.4928,2.4926,2.4927,2.4917,2.4945,2.4959,2.4939,2.4939,2.4939,2.4939,2.4939,2.4939,2.5712,2.5653,2.5623,2.554,2.5499,2.5436,2.5404,2.5358,2.5313,2.5232,2.518,2.5141,2.5082,2.5009,2.4949,2.4932,2.4907,2.4908,2.4888,2.4914,2.4915,2.4917,2.4929,2.4904,2.4904,2.4864,2.4864,2.4864]}]]